User: anonymous   Login
Location: Unspecified
(0.0000°N, 0.0000°E)
Time: 16:28:56
(UTC+00:00)
Language:

AO-7 - Orbit

View from above orbital plane
View from above orbital plane
View from above satellite
View from above satellite

Ground track
Ground track

The orbit data is extracted from the following two-line orbital elements,

1  7530U 74089B   17204.93606028 -.00000050 +00000-0 -33788-4 0  9991
2  7530 101.6331 172.9011 0011577 250.9766 123.9779 12.53627814953238
Epoch (UTC): 23 July 2017 22:27:55
Eccentricity: 0.0011577
inclination: 101.6331°
perigee height: 1440 km
apogee height: 1458 km
right ascension of ascending node: 172.9011°
argument of perigee: 250.9766°
revolutions per day: 12.53627814
mean anomaly at epoch: 123.9779°
orbit number at epoch: 95323

The dashed part of the orbit path shows where the satellite is in the earth's shadow,  

DLR